Weather History for Lapeer, MI

Change the Weather History Date:

Monday, September 9, 2013

  Actual Average (KFNT) Record (KFNT)
Temperature  
Mean Temperature 60 °F 64 °F  
Max Temperature 77 °F 75 °F 96 °F (1933)
Min Temperature 44 °F 53 °F 38 °F (1995)
Degree Days  
Heating Degree Days 4 3  
Month to date heating degree days 23  
Since 1 July heating degree days 67  
Cooling Degree Days 0 2  
Month to date cooling degree days 23  
Year to date cooling degree days 500  
Growing Degree Days 10 (Base 50)    
Moisture  
Dew Point 57 °F    
Average Humidity 84    
Maximum Humidity 99    
Minimum Humidity 66    
Precipitation  
Precipitation 0.00 in 0.12 in 1.20 in (1931)
Month to date precipitation 1.08  
Year to date precipitation 21.64  
Snow  
Snow 0.00 in 0.00 in 0.00 in ()
Month to date snowfall 0.0  
Since 1 July snowfall 0.0  
Since 1 September snowfall 0.0  
Snow Depth -    
Sea Level Pressure  
Sea Level Pressure 30.01 in    
Wind  
Wind Speed 2 mph (SSE)    
Max Wind Speed 12 mph    
Max Gust Speed 16 mph    
Visibility 10 miles    
Events Rain    
T = Trace of Precipitation, MM = Missing Value Source: NWS Daily Summary

Daily Weather History Graph

Daily Weather History Graph

Search for Another Location

Airport:

Trip Planner

Search our weather history database for the weather conditions in past years. The results will help you decide how hot, cold, wet, or windy it might be!

Date:

Astronomy

Sep. 09, 2013 Rise Set
Actual Time 7:06 AM EDT 7:53 PM EDT
Civil Twilight 6:37 AM EDT 8:22 PM EDT
Nautical Twilight 6:03 AM EDT 8:56 PM EDT
Astronomical Twilight 5:27 AM EDT 9:31 PM EDT
Moon 11:34 AM EDT (9/9) 10:00 PM EDT (9/9)
Length of Visible Light 13h 44m
Length of Day
12h 46m
Waxing Crescent, 19% of the Moon is Illuminated
Sep 9
Waxing Crescent
Sep 12
First Quarter
Sep 19
Full
Sep 26
Last Quarter
Oct 4
New

Hourly Weather History & Observations

Time (EDT) Temp. Dew Point Humidity Pressure Visibility Wind Dir Wind Speed Gust Speed Precip Events Conditions
12:14 AM 48.4 °F 47.1 °F 95% 30.08 in 10.0 mi Calm Calm - N/A   Clear
12:33 AM 48.0 °F 46.8 °F 95% 30.08 in 10.0 mi Calm Calm - N/A   Clear
12:53 AM 48.0 °F 46.8 °F 95% 30.08 in 10.0 mi Calm Calm - N/A   Clear
1:14 AM 47.5 °F 46.4 °F 96% 30.09 in 10.0 mi Calm Calm - N/A   Clear
1:33 AM 47.3 °F 46.4 °F 97% 30.09 in 10.0 mi Calm Calm - N/A   Clear
1:53 AM 47.3 °F 46.0 °F 95% 30.09 in 10.0 mi Calm Calm - N/A   Clear
2:14 AM 45.9 °F 45.1 °F 97% 30.08 in 10.0 mi Calm Calm - N/A   Clear
2:33 AM 45.7 °F 45.0 °F 97% 30.09 in 10.0 mi Calm Calm - N/A   Clear
2:53 AM 44.6 °F 43.9 °F 97% 30.08 in 10.0 mi Calm Calm - N/A   Clear
3:14 AM 45.5 °F 45.3 °F 99% 30.08 in 10.0 mi Calm Calm - N/A   Clear
3:33 AM 44.6 °F 44.1 °F 98% 30.08 in 10.0 mi Calm Calm - N/A   Clear
3:53 AM 44.6 °F 43.9 °F 97% 30.08 in 10.0 mi Calm Calm - N/A   Clear
4:14 AM 47.1 °F 46.6 °F 98% 30.08 in 10.0 mi Calm Calm - N/A   Clear
4:33 AM 47.3 °F 46.6 °F 97% 30.08 in 10.0 mi Calm Calm - N/A   Clear
4:53 AM 48.7 °F 48.0 °F 97% 30.08 in 10.0 mi Calm Calm - N/A   Clear
5:14 AM 49.5 °F 48.7 °F 97% 30.07 in 10.0 mi Calm Calm - N/A   Clear
5:33 AM 50.2 °F 49.3 °F 97% 30.06 in 10.0 mi Calm Calm - N/A   Clear
5:54 AM 50.4 °F 49.5 °F 97% 30.06 in 10.0 mi Calm Calm - N/A   Clear
6:14 AM 52.3 °F 51.6 °F 97% 30.05 in 10.0 mi SSE 3.5 mph - N/A   Clear
6:33 AM 54.0 °F 52.9 °F 96% 30.05 in 10.0 mi Calm Calm - N/A   Clear
6:54 AM 53.6 °F 52.7 °F 97% 30.07 in 10.0 mi Calm Calm - N/A   Scattered Clouds
7:14 AM 54.1 °F 53.2 °F 97% 30.07 in 10.0 mi Calm Calm - N/A   Scattered Clouds
7:33 AM 54.9 °F 54.0 °F 97% 30.07 in 10.0 mi Calm Calm - N/A   Mostly Cloudy
7:54 AM 55.4 °F 54.5 °F 97% 30.06 in 10.0 mi East 3.5 mph - N/A   Overcast
8:14 AM 57.2 °F 55.4 °F 94% 30.05 in 10.0 mi Calm Calm - N/A   Scattered Clouds
8:33 AM 58.6 °F 56.1 °F 91% 30.06 in 10.0 mi Calm Calm - N/A   Clear
8:54 AM 60.3 °F 56.5 °F 87% 30.06 in 10.0 mi Calm Calm - N/A   Clear
9:14 AM 60.8 °F 56.8 °F 87% 30.06 in 10.0 mi SE 4.6 mph - N/A   Scattered Clouds
9:33 AM 61.7 °F 57.4 °F 86% 30.05 in 10.0 mi SE 4.6 mph - N/A   Scattered Clouds
9:54 AM 63.7 °F 57.4 °F 80% 30.05 in 10.0 mi SE 3.5 mph - N/A   Mostly Cloudy
10:14 AM 64.8 °F 57.4 °F 77% 30.05 in 10.0 mi SSE 3.5 mph - N/A   Mostly Cloudy
10:33 AM 66.4 °F 56.5 °F 70% 30.04 in 10.0 mi SSE 3.5 mph - N/A   Mostly Cloudy
10:54 AM 67.5 °F 55.6 °F 66% 30.04 in 10.0 mi SSE 5.8 mph - N/A   Overcast
11:14 AM 66.6 °F 55.4 °F 67% 30.04 in 10.0 mi SSE 4.6 mph - N/A   Overcast
11:33 AM 66.9 °F 55.8 °F 67% 30.05 in 10.0 mi Calm Calm - N/A   Overcast
11:54 AM 67.3 °F 55.4 °F 66% 30.05 in 10.0 mi South 3.5 mph - N/A   Overcast
12:14 PM 67.1 °F 56.3 °F 68% 30.04 in 10.0 mi Calm Calm - N/A Rain Light Rain
12:33 PM 65.3 °F 57.0 °F 75% 30.04 in 10.0 mi SSE 3.5 mph - N/A Rain Rain
12:54 PM 66.0 °F 56.7 °F 72% 30.03 in 10.0 mi Calm Calm - N/A Rain Light Rain
1:13 PM 67.5 °F 57.0 °F 69% 30.02 in 10.0 mi SSE 4.6 mph - N/A   Overcast
1:33 PM 67.1 °F 57.6 °F 71% 30.01 in 10.0 mi South 6.9 mph - N/A   Overcast
1:54 PM 67.5 °F 58.3 °F 72% 30.00 in 10.0 mi SSE 5.8 mph - N/A   Overcast
2:14 PM 68.9 °F 59.4 °F 72% 30.00 in 10.0 mi SSE 6.9 mph - N/A   Overcast
2:33 PM 69.8 °F 60.3 °F 72% 30.00 in 10.0 mi South 5.8 mph - N/A   Overcast
2:54 PM 72.5 °F 61.5 °F 68% 29.98 in 10.0 mi South 5.8 mph - N/A   Mostly Cloudy
3:14 PM 73.4 °F 62.4 °F 68% 29.98 in 10.0 mi SE 3.5 mph - N/A   Scattered Clouds
3:33 PM 73.8 °F 62.6 °F 68% 29.98 in 10.0 mi Calm Calm - N/A   Clear
3:54 PM 75.4 °F 63.7 °F 67% 29.97 in 10.0 mi South 6.9 mph - N/A   Clear
4:13 PM 75.6 °F 63.9 °F 67% 29.97 in 10.0 mi SSE 4.6 mph - N/A   Clear
4:33 PM 76.1 °F 64.0 °F 66% 29.95 in 10.0 mi SSE 4.6 mph - N/A   Clear
4:54 PM 77.0 °F 65.1 °F 67% 29.95 in 10.0 mi South 6.9 mph - N/A   Clear
5:13 PM 76.6 °F 65.1 °F 67% 29.94 in 10.0 mi SSE 8.1 mph - N/A   Clear
5:34 PM 77.0 °F 65.7 °F 68% 29.93 in 10.0 mi SSE 8.1 mph - N/A   Clear
5:54 PM 76.3 °F 66.0 °F 70% 29.93 in 10.0 mi South 8.1 mph - N/A   Clear
6:13 PM 75.7 °F 66.2 °F 72% 29.92 in 10.0 mi SSE 8.1 mph - N/A   Clear
6:34 PM 74.5 °F 66.0 °F 75% 29.93 in 10.0 mi South 11.5 mph 16.1 mph N/A   Clear
6:54 PM 73.4 °F 66.0 °F 78% 29.93 in 10.0 mi South 5.8 mph - N/A   Clear
7:13 PM 72.7 °F 66.2 °F 80% 29.92 in 10.0 mi South 9.2 mph - N/A   Clear
7:34 PM 71.6 °F 66.2 °F 83% 29.92 in 10.0 mi South 4.6 mph - N/A   Clear
7:53 PM 70.9 °F 66.2 °F 85% 29.93 in 10.0 mi SSE 3.5 mph - N/A   Clear
8:13 PM 70.0 °F 66.0 °F 87% 29.94 in 10.0 mi Calm Calm - N/A   Scattered Clouds
8:34 PM 69.1 °F 65.7 °F 89% 29.93 in 10.0 mi SE 4.6 mph - N/A   Mostly Cloudy
8:53 PM 68.9 °F 65.7 °F 89% 29.93 in 10.0 mi SSE 6.9 mph - N/A   Scattered Clouds
9:13 PM 68.9 °F 65.7 °F 89% 29.92 in 7.0 mi South 8.1 mph - N/A   Clear
9:34 PM 68.9 °F 65.8 °F 90% 29.93 in 7.0 mi South 6.9 mph - N/A   Clear
9:53 PM 68.5 °F 65.7 °F 90% 29.93 in 7.0 mi South 4.6 mph - N/A   Clear
10:13 PM 68.9 °F 65.7 °F 89% 29.93 in 7.0 mi South 9.2 mph - N/A   Clear
10:34 PM 69.6 °F 66.2 °F 89% 29.92 in 7.0 mi South 8.1 mph - N/A   Mostly Cloudy
10:53 PM 70.3 °F 66.2 °F 87% 29.92 in 7.0 mi South 5.8 mph - N/A   Mostly Cloudy
11:13 PM 70.7 °F 66.6 °F 87% 29.91 in 10.0 mi South 8.1 mph - N/A   Scattered Clouds
11:34 PM 71.1 °F 66.7 °F 86% 29.90 in 10.0 mi South 6.9 mph - N/A   Clear
11:53 PM 71.6 °F 67.1 °F 86% 29.90 in 10.0 mi South 8.1 mph - N/A   Clear